Location: Powder Track
(41.8531°N, 72.3584°W)
Time: 09:22:08
(UTC+00:00)

Transit 4A - Pass Details

Date: 06 August 2021
Orbit: 871 x 974 km, 66.8° (Epoch: 20 September)

Event Time Altitude Azimuth Distance (km) Brightness Sun altitude
Rises 02:39:02 0° 184° (S) 3,495 - -23.6°
Reaches altitude 10° 02:41:42 10° 177° (S) 2,546 - -23.8°
Maximum altitude 02:47:03 37° 111° (ESE) 1,327 - -24.4°
Exits shadow 02:48:27 33° 81° (E) 1,442 8.7 -24.6°
Drops below altitude 10° 02:52:21 10° 45° (NE) 2,526 10.3 -25.0°
Sets 02:54:58 0° 38° (NE) 3,465 11.1 -25.2°
